Weather in Ovsyannikova

Russia / Tyumen Oblast     58°17′27″N   68°04′29″E
temp.,
°C
wind,
m/s
gust,
m/s
humid.,
%
clouds,
%
prec.,
mm/h
press.,
hPa
HPBL,
m
9 may, sun
sun923:00+18ese61246100 0.0 1017433
02:00+14ese5115966 0.0 1017278
05:00+13ese41166100 0.0 1018290
08:00+17ese5949100 0.0 1019488
11:00+20ese6737100 0.0 10201023
14:00+22e6631100 0.0 10201626
17:00+21e5635100 0.0 10211609
20:00+17e484598 0.0 1022215
10 may, mon
mon1023:00+13e4105699 0.0 1023358
02:00+10ene376031 0.0 1024186
05:00+9ene386297 0.0 1026190
08:00+13e474220 0.0 1027647
11:00+17e46325 0.0 10271481
14:00+19ene45285 0.0 10261951
17:00+20ene45263 0.0 10261960
20:00+16e33390 0.0 102634
11 may, tue
tue1123:00+12ese22480 0.0 102717
02:00+10ese11550 0.0 102810
05:00+10ene00600 0.0 102810
08:00+15se11424 0.0 1028339
11:00+20w11305 0.0 10281375
14:00+21w232576 0.0 10261797
17:00+22w4425100 0.0 10261867
20:00+18w223969 0.0 102513
12 may, wed
wed1223:00+14wsw334755 0.0 102545
02:00+14nw3658100 0.0 1025157
05:00+13n3783100 0.1 1025289
08:00+14n575492 0.0 1026672
11:00+16n4538100 0.0 10261129
14:00+18nnw5740100 0.0 10252006
17:00+14nnw4654100 0.0 1026773
20:00+12nw476714 0.0 1027354
13 may, thu
thu1323:00+10nw237985 0.0 102646
02:00+11wsw2277100 0.0 102636
05:00+11wsw3775100 0.0 1025188
08:00+16w4760100 0.0 1024483
11:00+21wnw594948 0.0 10221783
14:00+21nw51048100 0.0 10222147
17:00+19n695456 0.0 10241219
20:00+16n49476 0.0 1025287